HLR weather

Reforma Latino Heliport
Cuauhtémoc, Distrito Federal, Mexico

Public forecast

Using degrees Celsius for public forecast. Weather courtesy of forecast.io.

METAR (pilot weather report)

Closest report is Licenciado Benito Juarez International Airport, 5.3 nm (9.8 km) E. Retrieved 2019/08/23 04:45 UTC (48 minutes ago):

MMMX 230445Z 33005KT 7SM SCT020 BKN080 OVC200 17/12 A3035 NOSIG RMK 8/463 HZY

TAF (pilot weather forecast)

Forecast is more than 12 hours old.

Closest forecast is Licenciado Benito Juarez International Airport, 5.3 nm (9.8 km) E. Retrieved 2019/08/22 00:28 UTC (1 day ago):

TAF MMMX 222323Z 2300/2406 17006KT P6SM BKN020CB BKN080 OVC200 TX25/2321Z TN14/2312Z TEMPO 2300/2304 4SM TSRA FM230400 16005KT 6SM RA BKN020 BKN080 FM230600 00000KT P6SM BKN020 BKN080 FM231600 23006KT P6SM SCT020 BKN080 FM232100 32010KT P6SM BKN020 BKN080 TEMPO 2322/2402 5SM TSRA BKN020CB